, AK

(GMT )
Valdez Airport

Weather History for PAVD - December, 2013

Change the Weather History Date:

Saturday, December 7, 2013

  Actual Average Record
Temperature  
Mean Temperature 22 °F -  
Max Temperature 26 °F 28 °F 37 °F (1964)
Min Temperature 17 °F 20 °F -4 °F (1975)
Degree Days  
Heating Degree Days 44    
Moisture  
Dew Point 17 °F    
Average Humidity 83    
Maximum Humidity 100    
Minimum Humidity 68    
Precipitation  
Precipitation 0.00 in - - ()
Sea Level Pressure  
Sea Level Pressure 30.45 in    
Wind  
Wind Speed 1 mph (ENE)    
Max Wind Speed 8 mph    
Max Gust Speed -    
Visibility 10 miles    
Events      
Averages and records for this station are not official NWS values.
T = Trace of Precipitation, MM = Missing Value Source: NWS Daily Summary

Daily Weather History Graph

Daily Weather History Graph

Search for Another Location

Airport or City:

Trip Planner

Search our weather history database for the weather conditions in past years. The results will help you decide how hot, cold, wet, or windy it might be!

Date:

Astronomy

Dec. 07, 2013 Rise Set
Actual Time 9:42 AM AKST 3:30 PM AKST
Civil Twilight 8:42 AM AKST 4:30 PM AKST
Nautical Twilight 7:44 AM AKST 5:28 PM AKST
Astronomical Twilight 6:51 AM AKST 6:21 PM AKST
Moon 12:22 PM AKST (12/7) 10:41 PM AKST (12/7)
Length of Visible Light 7h 47m
Length of Day
5h 47m
Waxing Crescent, 31% of the Moon is Illuminated
Dec 7
Waxing Crescent
Dec 9
First Quarter
Dec 17
Full
Dec 25
Last Quarter
Jan 1
New

Hourly Weather History & Observations

Time (AKST) Temp. Windchill Dew Point Humidity Pressure Visibility Wind Dir Wind Speed Gust Speed Precip Events Conditions
12:16 AM 26.6 °F - 17.6 °F 69% 30.52 in 10.0 mi Calm Calm - N/A   Clear
12:36 AM 23.0 °F 18.4 °F 19.4 °F 86% 30.52 in 10.0 mi NNE 3.5 mph - N/A   Clear
12:56 AM 19.4 °F 14.3 °F 14.0 °F 80% 30.52 in 10.0 mi North 3.5 mph - N/A   Clear
1:16 AM 24.8 °F - 17.6 °F 74% 30.51 in 10.0 mi Calm Calm - N/A   Clear
1:36 AM 24.8 °F - 17.6 °F 74% 30.51 in 10.0 mi Calm Calm - N/A   Clear
1:56 AM 19.4 °F 14.3 °F 15.8 °F 86% 30.51 in 10.0 mi ESE 3.5 mph - N/A   Clear
2:16 AM 19.4 °F - 17.6 °F 93% 30.50 in 10.0 mi Calm Calm - N/A   Clear
2:36 AM 21.2 °F - 17.6 °F 86% 30.50 in 10.0 mi Calm Calm - N/A   Clear
2:56 AM 21.2 °F 14.9 °F 17.6 °F 86% 30.49 in 10.0 mi East 4.6 mph - N/A   Clear
3:16 AM 21.2 °F - 19.4 °F 93% 30.49 in 10.0 mi Calm Calm - N/A   Clear
3:36 AM 21.2 °F - 17.6 °F 86% 30.48 in 10.0 mi Calm Calm - N/A   Clear
3:56 AM 21.2 °F - 17.6 °F 86% 30.47 in 10.0 mi Calm Calm - N/A   Clear
4:16 AM 21.2 °F 16.4 °F 17.6 °F 86% 30.46 in 10.0 mi ENE 3.5 mph - N/A   Clear
4:36 AM 19.4 °F - 12.2 °F 74% 30.46 in 10.0 mi Calm Calm - N/A   Clear
4:56 AM 21.2 °F - 17.6 °F 86% 30.47 in 10.0 mi Calm Calm - N/A   Clear
5:16 AM 19.4 °F 12.8 °F 15.8 °F 86% 30.46 in 10.0 mi ENE 4.6 mph - N/A   Clear
5:36 AM 19.4 °F - 15.8 °F 86% 30.46 in 10.0 mi Calm Calm - N/A   Clear
5:56 AM 19.4 °F - 17.6 °F 93% 30.47 in 10.0 mi Calm Calm - N/A   Clear
6:16 AM 19.4 °F - 17.6 °F 93% 30.47 in 10.0 mi Calm Calm - N/A   Clear
6:36 AM 19.4 °F - 15.8 °F 86% 30.47 in 10.0 mi Calm Calm - N/A   Clear
6:56 AM 21.2 °F - 17.6 °F 86% 30.47 in 10.0 mi Calm Calm - N/A   Clear
7:16 AM 21.2 °F - 19.4 °F 93% 30.47 in 10.0 mi Calm Calm - N/A   Clear
7:36 AM 19.4 °F - 14.0 °F 80% 30.48 in 10.0 mi Calm Calm - N/A   Clear
7:56 AM 19.4 °F - 14.0 °F 80% 30.47 in 10.0 mi Calm Calm - N/A   Clear
8:16 AM 21.2 °F 12.6 °F 19.4 °F 93% 30.48 in 10.0 mi East 6.9 mph - N/A   Clear
8:36 AM 19.4 °F 9.5 °F 12.2 °F 74% 30.47 in 10.0 mi East 8.1 mph - N/A   Clear
8:56 AM 21.2 °F 14.9 °F 15.8 °F 80% 30.47 in 10.0 mi East 4.6 mph - N/A   Partly Cloudy
9:16 AM 21.2 °F 16.4 °F 17.6 °F 86% 30.47 in 10.0 mi NE 3.5 mph - N/A   Partly Cloudy
9:36 AM 21.2 °F - 19.4 °F 93% 30.46 in 10.0 mi Calm Calm - N/A   Partly Cloudy
9:56 AM 21.2 °F - 17.6 °F 86% 30.46 in 10.0 mi Calm Calm - N/A   Partly Cloudy
10:16 AM 19.4 °F 14.3 °F 12.2 °F 74% 30.46 in 10.0 mi East 3.5 mph - N/A   Partly Cloudy
10:36 AM 21.2 °F - 15.8 °F 80% 30.46 in 10.0 mi Calm Calm - N/A   Partly Cloudy
10:56 AM 23.0 °F - 19.4 °F 86% 30.46 in 10.0 mi Calm Calm - N/A   Scattered Clouds
11:16 AM 21.2 °F - 17.6 °F 86% 30.46 in 10.0 mi Calm Calm - N/A   Scattered Clouds
11:36 AM 23.0 °F - 14.0 °F 68% 30.46 in 10.0 mi Calm Calm - N/A   Scattered Clouds
11:56 AM 21.2 °F 16.4 °F 17.6 °F 86% 30.45 in 10.0 mi ENE 3.5 mph - N/A   Scattered Clouds
12:16 PM 21.2 °F - 19.4 °F 93% 30.45 in 10.0 mi Calm Calm - N/A   Scattered Clouds
12:36 PM 23.0 °F 17.0 °F 15.8 °F 74% 30.44 in 10.0 mi ENE 4.6 mph - N/A   Scattered Clouds
12:56 PM 24.8 °F - 19.4 °F 80% 30.44 in 10.0 mi Calm Calm - N/A   Scattered Clouds
1:16 PM 24.8 °F - 19.4 °F 80% 30.44 in 10.0 mi Calm Calm - N/A   Scattered Clouds
1:36 PM 24.8 °F - 17.6 °F 74% 30.44 in 10.0 mi Calm Calm - N/A   Scattered Clouds
1:56 PM 24.8 °F 20.5 °F 17.6 °F 74% 30.43 in 10.0 mi East 3.5 mph - N/A   Scattered Clouds
2:16 PM 24.8 °F - 17.6 °F 74% 30.43 in 10.0 mi Calm Calm - N/A   Scattered Clouds
2:36 PM 24.8 °F - 17.6 °F 74% 30.42 in 10.0 mi Calm Calm - N/A   Scattered Clouds
2:56 PM 24.8 °F - 19.4 °F 80% 30.42 in 10.0 mi Calm Calm - N/A   Scattered Clouds
3:16 PM 23.0 °F - 15.8 °F 74% 30.42 in 10.0 mi Calm Calm - N/A   Scattered Clouds
3:36 PM 23.0 °F - 17.6 °F 80% 30.42 in 10.0 mi Calm Calm - N/A   Scattered Clouds
3:56 PM 23.0 °F - 19.4 °F 86% 30.42 in 10.0 mi Calm Calm - N/A   Scattered Clouds
4:16 PM 21.2 °F - 15.8 °F 80% 30.42 in 10.0 mi Calm Calm - N/A   Scattered Clouds
4:36 PM 19.4 °F - 15.8 °F 86% 30.42 in 10.0 mi Calm Calm - N/A   Scattered Clouds
4:56 PM 19.4 °F - 14.0 °F 80% 30.43 in 10.0 mi Calm Calm - N/A   Scattered Clouds
5:16 PM 21.2 °F - 15.8 °F 80% 30.43 in 10.0 mi Calm Calm - N/A   Scattered Clouds
5:36 PM 19.4 °F - 19.4 °F 100% 30.43 in 10.0 mi Calm Calm - N/A   Scattered Clouds
5:56 PM 21.2 °F - 17.6 °F 86% 30.43 in 10.0 mi Calm Calm - N/A   Clear
6:16 PM 19.4 °F 14.3 °F 10.4 °F 68% 30.43 in 10.0 mi East 3.5 mph - N/A   Clear
6:36 PM 19.4 °F 14.3 °F 15.8 °F 86% 30.43 in 10.0 mi East 3.5 mph - N/A   Clear
6:56 PM 21.2 °F 14.9 °F 19.4 °F 93% 30.43 in 10.0 mi East 4.6 mph - N/A   Clear
7:16 PM 19.4 °F 14.3 °F 15.8 °F 86% 30.43 in 10.0 mi ENE 3.5 mph - N/A   Clear
7:36 PM 19.4 °F - 14.0 °F 80% 30.43 in 10.0 mi Calm Calm - N/A   Clear
7:56 PM 19.4 °F - 19.4 °F 100% 30.43 in 10.0 mi Calm Calm - N/A   Clear
8:16 PM 21.2 °F - 21.2 °F 100% 30.43 in 10.0 mi Calm Calm - N/A   Clear
8:36 PM 21.2 °F - 15.8 °F 80% 30.43 in 10.0 mi Calm Calm - N/A   Clear
8:56 PM 21.2 °F - 19.4 °F 93% 30.43 in 10.0 mi Calm Calm - N/A   Clear
9:16 PM 23.0 °F 18.4 °F 21.2 °F 93% 30.43 in 10.0 mi East 3.5 mph - N/A   Clear
9:36 PM 19.4 °F 14.3 °F 12.2 °F 74% 30.42 in 10.0 mi East 3.5 mph - N/A   Clear
9:56 PM 19.4 °F - 12.2 °F 74% 30.43 in 10.0 mi Calm Calm - N/A   Clear
10:16 PM 23.0 °F - 19.4 °F 86% 30.43 in 10.0 mi Calm Calm - N/A   Clear
10:36 PM 17.6 °F - 12.2 °F 79% 30.43 in 10.0 mi Calm Calm - N/A   Clear
10:56 PM 21.2 °F - 19.4 °F 93% 30.44 in 10.0 mi Calm Calm - N/A   Clear
11:16 PM 19.4 °F 11.5 °F 17.6 °F 93% 30.44 in 10.0 mi East 5.8 mph - N/A   Clear
11:36 PM 19.4 °F - 10.4 °F 68% 30.44 in 10.0 mi Calm Calm - N/A   Clear
11:56 PM 19.4 °F - 15.8 °F 86% 30.44 in 10.0 mi Calm Calm - N/A   Clear